Change the Weather History Date:

Friday, August 24, 2012

  Actual Average Record
Temperature  
Mean Temperature 76 °F 70 °F  
Max Temperature 89 °F 80 °F 98 °F (1948)
Min Temperature 63 °F 60 °F 40 °F (1946)
Degree Days  
Heating Degree Days 0 1  
Month to date heating degree days 9 2  
Since 1 June heating degree days 37 53  
Since 1 July heating degree days 9 8  
Cooling Degree Days 11 6  
Month to date cooling degree days 130 159  
Year to date cooling degree days 895 590  
Since 1 June cooling degree days 787 543  
Growing Degree Days 26 (Base 50)    
Moisture  
Dew Point 60 °F    
Average Humidity 60    
Maximum Humidity 84    
Minimum Humidity 36    
Precipitation  
Precipitation 0.00 in 0.11 in 1.56 in (1993)
Month to date precipitation 3.12 2.75  
Year to date precipitation 22.00 23.88  
Snow  
Snow 0.00 in 0.00 in 0.00 in ()
Month to date snowfall 0.0 0.0  
Since 1 June snowfall 0.0 0.0  
Since 1 July snowfall 0.0 0.0  
Snow Depth 0.00 in    
Sea Level Pressure  
Sea Level Pressure 30.06 in    
Wind  
Wind Speed 6 mph (SSE)    
Max Wind Speed 12 mph    
Max Gust Speed 16 mph    
Visibility 10 miles    
Events      
T = Trace of Precipitation, MM = Missing Value Source: NWS Daily Summary

Daily Weather History Graph

Daily Weather History Graph

Search for Another Location

Airport or City:

Trip Planner

Search our weather history database for the weather conditions in past years. The results will help you decide how hot, cold, wet, or windy it might be!

Date:

Astronomy

Aug. 24, 2012 Rise Set
Actual Time 6:58 AM EDT 8:29 PM EDT
Civil Twilight 6:28 AM EDT 8:58 PM EDT
Nautical Twilight 5:52 AM EDT 9:34 PM EDT
Astronomical Twilight 5:14 AM EDT 10:12 PM EDT
Moon 3:03 PM EDT (8/24) No Moon Set
Length of Visible Light 14h 30m
Length of Day
13h 30m
Waxing Crescent, 51% of the Moon is Illuminated
Aug 24
Waxing Crescent
Aug 31
Full
Sep 8
Last Quarter
Sep 15
New
Sep 22
First Quarter

Hourly Weather History & Observations

Time (EDT) Temp. Heat Index Dew Point Humidity Pressure Visibility Wind Dir Wind Speed Gust Speed Precip Events Conditions
12:53 AM 68.0 °F - 60.1 °F 76% 30.07 in 10.0 mi SSE 5.8 mph - N/A   Clear
1:53 AM 66.9 °F - 60.1 °F 79% 30.07 in 10.0 mi SSE 4.6 mph - N/A   Clear
2:53 AM 64.9 °F - 59.0 °F 81% 30.06 in 10.0 mi SSE 6.9 mph - N/A   Clear
3:53 AM 64.9 °F - 59.0 °F 81% 30.06 in 10.0 mi SSE 9.2 mph - N/A   Clear
4:53 AM 64.0 °F - 57.9 °F 80% 30.06 in 10.0 mi SSE 5.8 mph - N/A   Clear
5:53 AM 63.0 °F - 57.9 °F 84% 30.07 in 10.0 mi SSE 5.8 mph - N/A   Partly Cloudy
6:53 AM 64.0 °F - 57.0 °F 78% 30.08 in 10.0 mi South 4.6 mph - N/A   Scattered Clouds
7:53 AM 66.0 °F - 57.0 °F 73% 30.09 in 10.0 mi ESE 4.6 mph - N/A   Scattered Clouds
8:53 AM 70.0 °F - 59.0 °F 68% 30.10 in 10.0 mi SSE 5.8 mph - N/A   Scattered Clouds
9:53 AM 75.0 °F - 61.0 °F 62% 30.10 in 10.0 mi South 9.2 mph - N/A   Mostly Cloudy
10:53 AM 78.1 °F - 62.1 °F 58% 30.10 in 10.0 mi SE 6.9 mph - N/A   Scattered Clouds
11:53 AM 82.9 °F 83.2 °F 60.1 °F 46% 30.09 in 10.0 mi SSE 10.4 mph - N/A   Partly Cloudy
12:53 PM 84.9 °F 84.8 °F 60.1 °F 43% 30.07 in 10.0 mi SSW 8.1 mph 16.1 mph N/A   Partly Cloudy
1:53 PM 86.0 °F 84.9 °F 57.2 °F 37% 30.07 in 10.0 mi Variable 5.8 mph - N/A   Partly Cloudy
2:53 PM 87.1 °F 86.5 °F 59.0 °F 39% 30.04 in 10.0 mi South 8.1 mph - N/A   Mostly Cloudy
3:53 PM 88.0 °F 87.6 °F 60.1 °F 39% 30.03 in 10.0 mi South 10.4 mph - N/A   Mostly Cloudy
4:53 PM 87.1 °F 86.5 °F 59.0 °F 39% 30.03 in 10.0 mi Variable 3.5 mph - N/A   Mostly Cloudy
5:53 PM 88.0 °F 86.9 °F 57.9 °F 36% 30.03 in 10.0 mi South 5.8 mph - N/A   Mostly Cloudy
6:53 PM 86.0 °F 85.7 °F 60.1 °F 41% 30.03 in 10.0 mi SE 5.8 mph - N/A   Mostly Cloudy
7:53 PM 82.0 °F 82.7 °F 61.0 °F 49% 30.03 in 10.0 mi SE 5.8 mph - N/A   Mostly Cloudy
8:53 PM 78.1 °F - 62.1 °F 58% 30.03 in 10.0 mi SE 4.6 mph - N/A   Scattered Clouds
9:53 PM 73.9 °F - 62.1 °F 66% 30.04 in 10.0 mi SSE 5.8 mph - N/A   Scattered Clouds
10:53 PM 73.9 °F - 61.0 °F 64% 30.05 in 10.0 mi SE 3.5 mph - N/A   Scattered Clouds
11:53 PM 70.0 °F - 62.1 °F 76% 30.05 in 10.0 mi SSE 6.9 mph - N/A   Scattered Clouds